Weather History for KCNM - July, 2012

Change the Weather History Date:

Friday, July 13, 2012

  Actual Average Record
Temperature  
Mean Temperature 81 °F -  
Max Temperature 93 °F 93 °F 108 °F (1958)
Min Temperature 69 °F 68 °F 61 °F (1975)
Cooling Degree Days 16    
Growing Degree Days 31 (Base 50)    
Moisture  
Dew Point 58 °F    
Average Humidity 50    
Maximum Humidity 84    
Minimum Humidity 21    
Precipitation  
Precipitation 0.00 in - - ()
Sea Level Pressure  
Sea Level Pressure 29.90 in    
Wind  
Wind Speed 4 mph (WSW)    
Max Wind Speed 10 mph    
Max Gust Speed -    
Visibility 10 miles    
Events      
Averages and records for this station are not official NWS values.
T = Trace of Precipitation, MM = Missing Value Source: NWS Daily Summary

Daily Weather History Graph

Daily Weather History Graph

Search for Another Location

Airport or City:

Trip Planner

Search our weather history database for the weather conditions in past years. The results will help you decide how hot, cold, wet, or windy it might be!

Date:

Astronomy

Jul. 13, 2012 Rise Set
Actual Time 6:00 AM MDT 8:05 PM MDT
Civil Twilight 5:32 AM MDT 8:33 PM MDT
Nautical Twilight 4:58 AM MDT 9:07 PM MDT
Astronomical Twilight 4:21 AM MDT 9:43 PM MDT
Moon 1:34 AM MDT (7/13) 3:39 PM MDT (7/13)
Length of Visible Light 15h 01m
Length of Day
14h 05m
Waning Crescent, 26% of the Moon is Illuminated
Jul 13
Waning Crescent
Jul 18
New
Jul 26
First Quarter
Aug 1
Full
Aug 9
Last Quarter

Hourly Weather History & Observations

Time (MDT) Temp. Heat Index Dew Point Humidity Pressure Visibility Wind Dir Wind Speed Gust Speed Precip Events Conditions
12:53 AM 73.0 °F - 66.0 °F 79% 29.91 in 10.0 mi WNW 4.6 mph - N/A   Clear
1:53 AM 72.0 °F - 64.9 °F 78% 29.91 in 10.0 mi WSW 5.8 mph - N/A   Clear
2:53 AM 71.1 °F - 64.9 °F 81% 29.90 in 10.0 mi WNW 3.5 mph - N/A   Clear
3:53 AM 71.1 °F - 64.9 °F 81% 29.90 in 10.0 mi Calm Calm - N/A   Clear
4:53 AM 69.1 °F - 64.0 °F 84% 29.91 in 10.0 mi WNW 3.5 mph - N/A   Clear
5:53 AM 69.1 °F - 64.0 °F 84% 29.93 in 10.0 mi NW 3.5 mph - N/A   Clear
6:53 AM 70.0 °F - 64.9 °F 84% 29.94 in 10.0 mi Calm Calm - N/A   Clear
7:53 AM 73.9 °F - 64.0 °F 71% 29.95 in 10.0 mi NNW 5.8 mph - N/A   Clear
8:53 AM 79.0 °F - 60.1 °F 52% 29.96 in 10.0 mi NNW 3.5 mph - N/A   Clear
9:53 AM 84.0 °F 83.8 °F 59.0 °F 43% 29.96 in 10.0 mi Variable 3.5 mph - N/A   Clear
10:53 AM 87.1 °F 85.3 °F 55.0 °F 33% 29.95 in 10.0 mi ESE 4.6 mph - N/A   Clear
11:53 AM 90.0 °F - 50.0 °F 25% 29.94 in 10.0 mi ENE 3.5 mph - N/A   Clear
12:53 PM 91.9 °F - 51.1 °F 25% 29.93 in 10.0 mi SSE 10.4 mph - N/A   Clear
1:53 PM 91.9 °F - 50.0 °F 24% 29.91 in 10.0 mi SE 10.4 mph - N/A   Partly Cloudy
2:53 PM 91.0 °F - 50.0 °F 24% 29.89 in 10.0 mi Calm Calm - N/A   Scattered Clouds
3:53 PM 91.9 °F - 48.9 °F 23% 29.86 in 10.0 mi Variable 3.5 mph - N/A   Partly Cloudy
4:53 PM 93.0 °F - 48.0 °F 21% 29.84 in 10.0 mi Calm Calm - N/A   Clear
5:53 PM 91.9 °F - 48.9 °F 23% 29.83 in 10.0 mi SE 6.9 mph - N/A   Scattered Clouds
6:53 PM 91.9 °F - 48.9 °F 23% 29.83 in 10.0 mi SSE 5.8 mph - N/A   Scattered Clouds
7:53 PM 88.0 °F 85.9 °F 54.0 °F 31% 29.84 in 10.0 mi South 6.9 mph - N/A   Clear
8:53 PM 81.0 °F 81.3 °F 59.0 °F 47% 29.87 in 10.0 mi SSW 5.8 mph - N/A   Clear
9:53 PM 79.0 °F - 60.1 °F 52% 29.88 in 10.0 mi WSW 5.8 mph - N/A   Clear
10:53 PM 78.1 °F - 60.1 °F 54% 29.89 in 10.0 mi West 5.8 mph - N/A   Clear
11:53 PM 75.9 °F - 62.1 °F 62% 29.89 in 10.0 mi West 3.5 mph - N/A   Clear